This is the latest recevied weather packets stored in our database for station/object DB0SMU-12. If no packets are shown the sender has not sent any weather packets the latest 10 day(s).
| Time | Temp. | Humidity | Pressure | Rain* | Wind** | Luminosity | Snow |
|---|---|---|---|---|---|---|---|
| 1777806051 | 24.44° C | 31% | 1015.7 hPa | 0 mm | - | - | - |
| 1777805870 | 23.89° C | 30% | 1015.8 hPa | 0 mm | - | - | - |
| 1777805690 | 24.44° C | 30% | 1015.8 hPa | 0 mm | - | - | - |
| 1777805509 | 23.89° C | 32% | 1015.8 hPa | 0 mm | - | - | - |
| 1777805328 | 23.89° C | 33% | 1015.8 hPa | 0 mm | - | - | - |
| 1777805147 | 23.89° C | 32% | 1015.9 hPa | 0 mm | - | - | - |
| 1777804966 | 23.89° C | 33% | 1015.9 hPa | 0 mm | - | - | - |
| 1777804785 | 23.33° C | 33% | 1016 hPa | 0 mm | - | - | - |
| 1777804604 | 23.33° C | 33% | 1016 hPa | 0 mm | - | - | - |
| 1777804422 | 23.33° C | 34% | 1016 hPa | 0 mm | - | - | - |
| 1777804240 | 22.78° C | 34% | 1016.1 hPa | 0 mm | - | - | - |
| 1777804060 | 22.78° C | 36% | 1016.1 hPa | 0 mm | - | - | - |
| 1777803878 | 22.78° C | 35% | 1016.1 hPa | 0 mm | - | - | - |
| 1777803697 | 22.78° C | 37% | 1016.2 hPa | 0 mm | - | - | - |
| 1777803516 | 22.22° C | 36% | 1016.3 hPa | 0 mm | - | - | - |
| 1777803335 | 22.78° C | 36% | 1016.3 hPa | 0 mm | - | - | - |
| 1777803153 | 22.78° C | 37% | 1016.4 hPa | 0 mm | - | - | - |
| 1777802971 | 22.78° C | 38% | 1016.3 hPa | 0 mm | - | - | - |
| 1777802790 | 22.22° C | 39% | 1016.4 hPa | 0 mm | - | - | - |
| 1777802609 | 22.22° C | 41% | 1016.4 hPa | 0 mm | - | - | - |
| 1777802428 | 22.22° C | 37% | 1016.5 hPa | 0 mm | - | - | - |
| 1777802246 | 22.22° C | 40% | 1016.5 hPa | 0 mm | - | - | - |
| 1777802064 | 21.67° C | 40% | 1016.5 hPa | 0 mm | - | - | - |
| 1777801883 | 21.67° C | 41% | 1016.5 hPa | 0 mm | - | - | - |
| 1777801702 | 21.67° C | 40% | 1016.6 hPa | 0 mm | - | - | - |
* Rain latest hour (hover to see other rain measurements)
** Current wind speed in m/s (hover to see current wind gust speed)